| time (UTC) | temp C | wind direction | speed KPH | gust KPH | rain 1hr cm | rain 24hr cm | rain mn cm | humidity % | barometer mb |
| 20260504110456 | 12 | 175 | 0.0 | 0.0 | 0.00 | 0.00 | 0.00 | 82 | 1016.8 |
| 20260504100418 | 12 | 195 | 4.8 | 4.8 | 0.00 | 0.00 | 0.00 | 81 | 1016.6 |
| 20260504081811 | 11 | 291 | 0.0 | 3.2 | 0.00 | 0.00 | 0.00 | 79 | 1016.9 |
| 20260504081308 | 11 | 204 | 6.4 | 8.0 | 0.00 | 0.00 | 0.00 | 79 | 1016.8 |
| 20260504080804 | 11 | 223 | 9.7 | 11.3 | 0.00 | 0.00 | 0.00 | 79 | 1016.8 |
| 20260504080301 | 11 | 289 | 3.2 | 4.8 | 0.00 | 0.00 | 0.00 | 79 | 1016.9 |
| 20260504070228 | 10 | 160 | 4.8 | 4.8 | 0.00 | 0.00 | 0.00 | 74 | 1017.1 |
| 20260504060149 | 8 | 26 | 0.0 | 0.0 | 0.00 | 0.00 | 0.00 | 77 | 1017.1 |
| 20260504050617 | 3 | 44 | 0.0 | 0.0 | 0.00 | 0.00 | 0.00 | 76 | 1017.1 |
| 20260504050114 | 3 | 46 | 0.0 | 0.0 | 0.00 | 0.00 | 0.00 | 76 | 1017.1 |
| 20260504045611 | 3 | 51 | 0.0 | 0.0 | 0.00 | 0.00 | 0.00 | 76 | 1017.1 |
| 20260504045106 | 4 | 53 | 0.0 | 0.0 | 0.00 | 0.00 | 0.00 | 76 | 1017.3 |
| 20260504044604 | 3 | 48 | 0.0 | 0.0 | 0.00 | 0.00 | 0.00 | 76 | 1017.2 |
| 20260504044100 | 4 | 50 | 0.0 | 0.0 | 0.00 | 0.00 | 0.00 | 76 | 1017.1 |
| 20260504043558 | 4 | 57 | 0.0 | 0.0 | 0.00 | 0.00 | 0.00 | 76 | 1017.1 |
| 20260504043055 | 3 | 62 | 0.0 | 0.0 | 0.00 | 0.00 | 0.00 | 76 | 1017.0 |
| 20260504042552 | 4 | 53 | 0.0 | 0.0 | 0.00 | 0.00 | 0.00 | 75 | 1017.1 |
| 20260504042049 | 4 | 67 | 0.0 | 0.0 | 0.00 | 0.00 | 0.00 | 76 | 1017.1 |
| 20260504041545 | 4 | 62 | 0.0 | 0.0 | 0.00 | 0.00 | 0.00 | 75 | 1016.9 |
| 20260504041041 | 3 | 53 | 0.0 | 0.0 | 0.00 | 0.00 | 0.00 | 74 | 1017.1 |
| 20260504040538 | 3 | 42 | 0.0 | 0.0 | 0.00 | 0.00 | 0.00 | 74 | 1017.0 |
| 20260504040035 | 4 | 41 | 0.0 | 0.0 | 0.00 | 0.00 | 0.00 | 74 | 1016.8 |
| 20260504035532 | 4 | 42 | 0.0 | 0.0 | 0.00 | 0.00 | 0.00 | 74 | 1016.8 |
| 20260504035028 | 4 | 50 | 0.0 | 0.0 | 0.00 | 0.00 | 0.00 | 73 | 1016.7 |
| 20260504034526 | 3 | 42 | 0.0 | 0.0 | 0.00 | 0.00 | 0.00 | 73 | 1016.7 |
| 20260504034023 | 4 | 41 | 0.0 | 0.0 | 0.00 | 0.00 | 0.00 | 73 | 1016.6 |
| 20260504033521 | 4 | 52 | 0.0 | 0.0 | 0.00 | 0.00 | 0.00 | 73 | 1016.6 |
| 20260504033018 | 4 | 56 | 0.0 | 0.0 | 0.00 | 0.00 | 0.00 | 73 | 1016.6 |
| 20260504032515 | 4 | 47 | 0.0 | 0.0 | 0.00 | 0.00 | 0.00 | 72 | 1016.5 |
| 20260504032011 | 5 | 50 | 0.0 | 0.0 | 0.00 | 0.00 | 0.00 | 72 | 1016.6 |
| 20260504031509 | 5 | 57 | 0.0 | 0.0 | 0.00 | 0.00 | 0.00 | 72 | 1016.4 |
| 20260504031005 | 4 | 51 | 0.0 | 0.0 | 0.00 | 0.00 | 0.00 | 71 | 1016.4 |
| 20260504030502 | 4 | 63 | 0.0 | 0.0 | 0.00 | 0.00 | 0.00 | 71 | 1016.5 |
| 20260504025958 | 4 | 48 | 0.0 | 0.0 | 0.00 | 0.00 | 0.00 | 69 | 1016.4 |
| 20260504025455 | 4 | 49 | 0.0 | 0.0 | 0.00 | 0.00 | 0.00 | 69 | 1016.3 |
| 20260504024952 | 5 | 48 | 0.0 | 0.0 | 0.00 | 0.00 | 0.00 | 69 | 1016.4 |
| 20260504024449 | 5 | 61 | 0.0 | 0.0 | 0.00 | 0.00 | 0.00 | 69 | 1016.5 |
| 20260504023946 | 5 | 54 | 0.0 | 0.0 | 0.00 | 0.00 | 0.00 | 68 | 1016.4 |
| 20260504023443 | 5 | 57 | 0.0 | 0.0 | 0.00 | 0.00 | 0.00 | 68 | 1016.4 |
| 20260504022938 | 5 | 57 | 0.0 | 0.0 | 0.00 | 0.00 | 0.00 | 68 | 1016.5 |
| 20260504022435 | 5 | 54 | 0.0 | 0.0 | 0.00 | 0.00 | 0.00 | 68 | 1016.5 |
| 20260504021931 | 5 | 56 | 0.0 | 0.0 | 0.00 | 0.00 | 0.00 | 68 | 1016.4 |
| 20260504021429 | 5 | 45 | 0.0 | 0.0 | 0.00 | 0.00 | 0.00 | 68 | 1016.4 |
| 20260504020926 | 5 | 72 | 0.0 | 0.0 | 0.00 | 0.00 | 0.00 | 67 | 1016.4 |
| 20260504020422 | 5 | 63 | 0.0 | 0.0 | 0.00 | 0.00 | 0.00 | 67 | 1016.6 |
| 20260504015919 | 5 | 54 | 0.0 | 0.0 | 0.00 | 0.00 | 0.00 | 65 | 1016.4 |
| 20260504015415 | 5 | 50 | 0.0 | 0.0 | 0.00 | 0.00 | 0.00 | 65 | 1016.3 |
| 20260504014911 | 6 | 44 | 0.0 | 0.0 | 0.00 | 0.00 | 0.00 | 65 | 1016.0 |
| 20260504014407 | 6 | 42 | 0.0 | 0.0 | 0.00 | 0.00 | 0.00 | 65 | 1016.3 |
| 20260504013904 | 6 | 50 | 0.0 | 0.0 | 0.00 | 0.00 | 0.00 | 64 | 1016.3 |
| 20260504013402 | 6 | 57 | 0.0 | 0.0 | 0.00 | 0.00 | 0.00 | 64 | 1016.1 |
| 20260504012858 | 6 | 58 | 0.0 | 0.0 | 0.00 | 0.00 | 0.00 | 63 | 1016.0 |
| 20260504012356 | 6 | 56 | 0.0 | 0.0 | 0.00 | 0.00 | 0.00 | 62 | 1016.1 |
| 20260504011854 | 6 | 52 | 0.0 | 0.0 | 0.00 | 0.00 | 0.00 | 62 | 1016.2 |
| 20260504011350 | 6 | 64 | 0.0 | 0.0 | 0.00 | 0.00 | 0.00 | 62 | 1016.2 |
| 20260504010846 | 6 | 60 | 0.0 | 0.0 | 0.00 | 0.00 | 0.00 | 62 | 1016.0 |
| 20260504010342 | 6 | 48 | 0.0 | 0.0 | 0.00 | 0.00 | 0.00 | 62 | 1015.9 |
| 20260504005839 | 6 | 47 | 0.0 | 0.0 | 0.00 | 0.00 | 0.00 | 59 | 1016.1 |
| 20260504005336 | 7 | 49 | 0.0 | 0.0 | 0.00 | 0.00 | 0.00 | 57 | 1015.9 |
| 20260504004833 | 7 | 50 | 0.0 | 0.0 | 0.00 | 0.00 | 0.00 | 56 | 1015.7 |
| 20260504004331 | 8 | 52 | 0.0 | 0.0 | 0.00 | 0.00 | 0.00 | 57 | 1015.8 |
| 20260504003827 | 8 | 55 | 0.0 | 0.0 | 0.00 | 0.00 | 0.00 | 58 | 1015.7 |
| 20260504003324 | 8 | 59 | 0.0 | 0.0 | 0.00 | 0.00 | 0.00 | 56 | 1015.8 |
| 20260504002821 | 8 | 55 | 0.0 | 0.0 | 0.00 | 0.00 | 0.00 | 55 | 1015.5 |
| 20260504002317 | 9 | 48 | 0.0 | 0.0 | 0.00 | 0.00 | 0.00 | 52 | 1015.6 |
| 20260504001815 | 10 | 36 | 0.0 | 0.0 | 0.00 | 0.00 | 0.00 | 52 | 1015.6 |
| 20260504001312 | 10 | 40 | 0.0 | 0.0 | 0.00 | 0.00 | 0.00 | 50 | 1015.6 |
| 20260504000809 | 10 | 42 | 0.0 | 0.0 | 0.00 | 0.00 | 0.00 | 48 | 1015.2 |
| 20260504000306 | 11 | 43 | 0.0 | 0.0 | 0.00 | 0.00 | 0.00 | 45 | 1015.4 |
| 20260503235804 | 11 | 47 | 0.0 | 0.0 | 0.00 | 0.00 | 0.00 | 45 | 1015.4 |
| 20260503235301 | 12 | 47 | 0.0 | 0.0 | 0.00 | 0.00 | 0.00 | 43 | 1015.2 |
| 20260503234759 | 13 | 41 | 0.0 | 0.0 | 0.00 | 0.00 | 0.00 | 43 | 1015.0 |
| 20260503234256 | 13 | 334 | 1.6 | 3.2 | 0.00 | 0.00 | 0.00 | 39 | 1015.1 |
| 20260503233754 | 13 | 19 | 0.0 | 3.2 | 0.00 | 0.00 | 0.00 | 38 | 1015.3 |
| 20260503233249 | 14 | 17 | 1.6 | 3.2 | 0.00 | 0.00 | 0.00 | 38 | 1014.9 |
| 20260503232746 | 14 | 29 | 0.0 | 0.0 | 0.00 | 0.00 | 0.00 | 37 | 1015.2 |
| 20260503232243 | 15 | 357 | 0.0 | 0.0 | 0.00 | 0.00 | 0.00 | 36 | 1015.2 |
| 20260503231741 | 15 | 334 | 3.2 | 3.2 | 0.00 | 0.00 | 0.00 | 34 | 1015.3 |
| 20260503231238 | 15 | 51 | 0.0 | 0.0 | 0.00 | 0.00 | 0.00 | 35 | 1015.0 |
| 20260503230734 | 15 | 65 | 1.6 | 3.2 | 0.00 | 0.00 | 0.00 | 34 | 1015.2 |
| 20260503230232 | 15 | 13 | 3.2 | 4.8 | 0.00 | 0.00 | 0.00 | 34 | 1015.3 |
| 20260503225729 | 15 | 279 | 3.2 | 3.2 | 0.00 | 0.00 | 0.00 | 34 | 1015.3 |
| 20260503225229 | 16 | 301 | 8.0 | 11.3 | 0.00 | 0.00 | 0.00 | 33 | 1015.0 |
| 20260503224726 | 16 | 280 | 8.0 | 14.5 | 0.00 | 0.00 | 0.00 | 32 | 1015.0 |
| 20260503224224 | 16 | 267 | 11.3 | 16.1 | 0.00 | 0.00 | 0.00 | 31 | 1015.2 |
| 20260503223721 | 16 | 283 | 6.4 | 16.1 | 0.00 | 0.00 | 0.00 | 31 | 1015.1 |
| 20260503223219 | 16 | 39 | 0.0 | 0.0 | 0.00 | 0.00 | 0.00 | 32 | 1015.2 |
| 20260503222715 | 16 | 45 | 4.8 | 8.0 | 0.00 | 0.00 | 0.00 | 31 | 1014.9 |
| 20260503222213 | 16 | 317 | 11.3 | 19.3 | 0.00 | 0.00 | 0.00 | 30 | 1015.2 |
| 20260503221711 | 16 | 341 | 4.8 | 4.8 | 0.00 | 0.00 | 0.00 | 30 | 1015.2 |
| 20260503221209 | 16 | 282 | 8.0 | 11.3 | 0.00 | 0.00 | 0.00 | 31 | 1015.2 |
| 20260503220705 | 16 | 13 | 16.1 | 22.5 | 0.00 | 0.00 | 0.00 | 30 | 1015.3 |
| 20260503220201 | 16 | 264 | 8.0 | 11.3 | 0.00 | 0.00 | 0.00 | 31 | 1015.1 |
| 20260503215658 | 16 | 277 | 8.0 | 11.3 | 0.00 | 0.00 | 0.00 | 31 | 1015.1 |
| 20260503215155 | 16 | 285 | 14.5 | 19.3 | 0.00 | 0.00 | 0.00 | 31 | 1015.3 |
| 20260503214654 | 16 | 293 | 17.7 | 24.1 | 0.00 | 0.00 | 0.00 | 31 | 1015.1 |
| 20260503214149 | 16 | 282 | 8.0 | 11.3 | 0.00 | 0.00 | 0.00 | 32 | 1015.0 |
| 20260503213649 | 16 | 317 | 8.0 | 14.5 | 0.00 | 0.00 | 0.00 | 32 | 1015.0 |
| 20260503213145 | 16 | 44 | 16.1 | 27.4 | 0.00 | 0.00 | 0.00 | 31 | 1015.0 |
| 20260503212643 | 16 | 252 | 20.9 | 24.1 | 0.00 | 0.00 | 0.00 | 31 | 1015.1 |
| 20260503212140 | 17 | 327 | 4.8 | 8.0 | 0.00 | 0.00 | 0.00 | 30 | 1015.1 |
| 20260503211638 | 16 | 252 | 6.4 | 11.3 | 0.00 | 0.00 | 0.00 | 30 | 1015.0 |
| 20260503211132 | 16 | 283 | 14.5 | 22.5 | 0.00 | 0.00 | 0.00 | 30 | 1015.0 |
| 20260503210629 | 16 | 337 | 4.8 | 11.3 | 0.00 | 0.00 | 0.00 | 31 | 1015.0 |
| 20260503210126 | 16 | 232 | 3.2 | 4.8 | 0.00 | 0.00 | 0.00 | 32 | 1015.3 |
| 20260503205622 | 16 | 347 | 16.1 | 19.3 | 0.00 | 0.00 | 0.00 | 32 | 1015.1 |
| 20260503205118 | 16 | 9 | 11.3 | 16.1 | 0.00 | 0.00 | 0.00 | 32 | 1015.1 |
| 20260503204615 | 16 | 74 | 8.0 | 14.5 | 0.00 | 0.00 | 0.00 | 32 | 1015.0 |
| 20260503204113 | 16 | 57 | 8.0 | 14.5 | 0.00 | 0.00 | 0.00 | 32 | 1015.1 |
| 20260503203609 | 16 | 12 | 27.4 | 30.6 | 0.00 | 0.00 | 0.00 | 30 | 1015.2 |
| 20260503203107 | 16 | 21 | 19.3 | 27.4 | 0.00 | 0.00 | 0.00 | 31 | 1015.4 |
| 20260503202604 | 16 | 351 | 20.9 | 30.6 | 0.00 | 0.00 | 0.00 | 31 | 1015.3 |
| 20260503202102 | 16 | 314 | 11.3 | 16.1 | 0.00 | 0.00 | 0.00 | 30 | 1015.2 |
| 20260503201600 | 16 | 287 | 8.0 | 16.1 | 0.00 | 0.00 | 0.00 | 31 | 1015.4 |
| 20260503201057 | 16 | 244 | 24.1 | 41.8 | 0.00 | 0.00 | 0.00 | 30 | 1015.6 |
| 20260503200553 | 16 | 311 | 8.0 | 11.3 | 0.00 | 0.00 | 0.00 | 31 | 1015.4 |
| 20260503200050 | 16 | 277 | 8.0 | 8.0 | 0.00 | 0.00 | 0.00 | 32 | 1015.4 |
| 20260503195547 | 16 | 252 | 12.9 | 24.1 | 0.00 | 0.00 | 0.00 | 33 | 1015.4 |
| 20260503195044 | 16 | 288 | 12.9 | 16.1 | 0.00 | 0.00 | 0.00 | 32 | 1015.5 |
| 20260503194541 | 16 | 36 | 19.3 | 27.4 | 0.00 | 0.00 | 0.00 | 32 | 1015.5 |
| 20260503194041 | 16 | 69 | 11.3 | 14.5 | 0.00 | 0.00 | 0.00 | 31 | 1015.8 |
| 20260503193538 | 15 | 325 | 16.1 | 38.6 | 0.00 | 0.00 | 0.00 | 32 | 1015.9 |
| 20260503193033 | 15 | 7 | 11.3 | 16.1 | 0.00 | 0.00 | 0.00 | 32 | 1015.7 |
| 20260503192529 | 15 | 22 | 8.0 | 14.5 | 0.00 | 0.00 | 0.00 | 33 | 1015.9 |
| 20260503192025 | 16 | 301 | 20.9 | 24.1 | 0.00 | 0.00 | 0.00 | 31 | 1015.7 |
| 20260503191522 | 15 | 330 | 9.7 | 11.3 | 0.00 | 0.00 | 0.00 | 31 | 1016.0 |
| 20260503191019 | 15 | 24 | 45.1 | 54.7 | 0.00 | 0.00 | 0.00 | 31 | 1016.0 |
| 20260503190516 | 15 | 292 | 24.1 | 27.4 | 0.00 | 0.00 | 0.00 | 31 | 1016.1 |
| 20260503190014 | 15 | 69 | 14.5 | 19.3 | 0.00 | 0.00 | 0.00 | 32 | 1016.0 |
| 20260503185510 | 15 | 313 | 9.7 | 22.5 | 0.00 | 0.00 | 0.00 | 31 | 1016.1 |
| 20260503185009 | 16 | 308 | 20.9 | 30.6 | 0.00 | 0.00 | 0.00 | 30 | 1015.9 |
| 20260503184506 | 15 | 40 | 11.3 | 14.5 | 0.00 | 0.00 | 0.00 | 31 | 1015.9 |
| 20260503184002 | 15 | 308 | 14.5 | 16.1 | 0.00 | 0.00 | 0.00 | 30 | 1016.2 |
| 20260503183459 | 15 | 346 | 8.0 | 11.3 | 0.00 | 0.00 | 0.00 | 32 | 1016.2 |
| 20260503182956 | 14 | 300 | 17.7 | 24.1 | 0.00 | 0.00 | 0.00 | 32 | 1016.3 |
| 20260503182455 | 15 | 325 | 12.9 | 14.5 | 0.00 | 0.00 | 0.00 | 32 | 1016.4 |
| 20260503181952 | 15 | 284 | 8.0 | 14.5 | 0.00 | 0.00 | 0.00 | 30 | 1016.4 |
| 20260503181449 | 15 | 16 | 9.7 | 16.1 | 0.00 | 0.00 | 0.00 | 32 | 1016.5 |
| 20260503180945 | 15 | 299 | 8.0 | 14.5 | 0.00 | 0.00 | 0.00 | 31 | 1016.4 |
| 20260503180443 | 14 | 61 | 8.0 | 14.5 | 0.00 | 0.00 | 0.00 | 31 | 1016.5 |
| 20260503175940 | 15 | 25 | 8.0 | 14.5 | 0.00 | 0.00 | 0.00 | 29 | 1016.2 |
| 20260503175438 | 14 | 224 | 9.7 | 16.1 | 0.00 | 0.00 | 0.00 | 32 | 1016.4 |
| 20260503174938 | 14 | 92 | 6.4 | 11.3 | 0.00 | 0.00 | 0.00 | 31 | 1016.8 |
| 20260503174438 | 13 | 304 | 11.3 | 16.1 | 0.00 | 0.00 | 0.00 | 31 | 1016.6 |
| 20260503173938 | 14 | 274 | 30.6 | 38.6 | 0.00 | 0.00 | 0.00 | 31 | 1016.5 |
| 20260503173434 | 14 | 43 | 20.9 | 33.8 | 0.00 | 0.00 | 0.00 | 32 | 1016.5 |
| 20260503172931 | 14 | 2 | 12.9 | 16.1 | 0.00 | 0.00 | 0.00 | 33 | 1016.8 |
| 20260503172428 | 14 | 60 | 12.9 | 19.3 | 0.00 | 0.00 | 0.00 | 33 | 1016.7 |
| 20260503171924 | 13 | 49 | 17.7 | 24.1 | 0.00 | 0.00 | 0.00 | 33 | 1016.7 |
| 20260503171421 | 13 | 290 | 19.3 | 27.4 | 0.00 | 0.00 | 0.00 | 34 | 1016.6 |
| 20260503170919 | 13 | 234 | 8.0 | 11.3 | 0.00 | 0.00 | 0.00 | 34 | 1016.6 |
| 20260503170415 | 13 | 164 | 3.2 | 4.8 | 0.00 | 0.00 | 0.00 | 34 | 1016.7 |
| 20260503150807 | 11 | 32 | 19.3 | 27.4 | 0.00 | 0.00 | 0.00 | 43 | 1017.2 |
| 20260503150303 | 12 | 264 | 4.8 | 8.0 | 0.00 | 0.00 | 0.00 | 41 | 1017.0 |
| 20260503140228 | 11 | 339 | 12.9 | 19.3 | 0.00 | 0.00 | 0.00 | 46 | 1016.8 |
| 20260503131157 | 10 | 80 | 14.5 | 24.1 | 0.00 | 0.00 | 0.00 | 51 | 1016.7 |
| 20260503130654 | 10 | 313 | 14.5 | 22.5 | 0.00 | 0.00 | 0.00 | 50 | 1016.7 |
| 20260503130152 | 10 | 359 | 11.3 | 14.5 | 0.00 | 0.00 | 0.00 | 52 | 1016.8 |
| 20260503120117 | 9 | 359 | 8.0 | 11.3 | 0.00 | 0.00 | 0.00 | 59 | 1015.9 |